Dewpoint
20 21 21 20 21 23 24 22 21 20 20 18 17 17 16 16 16 16 17 19 19 17 19 20 20 21 21 19 18 17 18 17 17 16 14 8 14 14 10 11 12 23 20 28 44 46 45 44 56 53 53 57 61 63 64 64 65 69 66 64 63 63 63 65 65 65 65 65 65 65 65 65 66 64 66 66 66 64 65 66 67 67 67 67 66 66
23 23 25 25 24 24 23 23 22 20 19 18 19 18 17 18 16 17 17 20 18 16 16 18 17 19 19 18 17 17 18 17 16 17 19 17 13 16 16 14 13 21 16 32 39 45 53 44 51 56 54 59 58 59 62 63 64 66 67 64 63 62 63 65 64 64 65 65 65 64 64 65 65 64 64 64 65 65 66 67 67 67 67 67 67 66
24 21 21 24 26 27 26 25 24 23 24 24 22 21 20 19 20 19 18 17 17 17 17 16 16 16 16 16 17 17 16 19 20 20 20 20 21 16 13 17 20 21 27 30 35 44 48 48 47 54 55 57 57 58 59 62 64 65 68 65 64 65 65 65 64 64 65 65 65 65 64 66 65 65 65 64 65 66 66 67 68 68 67 67 66 66
25 25 27 29 30 29 28 26 26 27 27 26 24 23 24 22 20 18 19 19 18 19 18 19 18 20 21 21 20 20 19 20 19 18 19 19 22 21 18 17 19 17 28 34 34 36 42 48 44 48 51 52 54 55 57 60 62 64 69 67 66 66 66 65 65 65 66 66 66 68 68 67 66 64 66 66 67 66 67 66 68 68 67 67 66 65
26 31 32 30 30 29 28 28 29 28 26 26 25 25 24 22 22 20 19 21 21 19 19 18 18 17 18 18 18 21 20 18 18 18 19 20 20 23 23 22 23 23 29 31 35 37 36 41 47 46 49 52 53 55 55 60 61 61 69 68 67 66 66 65 65 66 67 67 66 66 66 66 67 67 65 65 64 65 66 66 67 67 67 66 66 66
31 33 31 32 31 29 29 31 28 27 26 26 26 24 22 22 21 21 21 21 21 20 19 18 17 19 21 20 19 21 21 21 21 23 20 21 19 19 29 26 25 22 29 32 33 36 37 38 43 48 50 50 51 55 58 61 63 62 66 68 68 67 67 66 66 66 67 67 66 65 64 63 64 64 65 64 63 64 65 64 66 66 66 66 66 66
32 33 31 30 30 29 30 28 28 28 25 25 24 24 23 20 21 21 22 23 22 20 22 22 19 19 22 21 21 20 20 19 20 21 19 19 17 18 19 20 22 25 30 33 34 35 35 39 40 44 46 45 45 50 58 61 63 63 64 69 68 67 67 67 67 67 67 65 65 64 64 63 62 64 64 65 65 64 64 65 66 65 66 65 66 66
31 31 31 30 30 29 28 28 29 28 26 24 24 25 25 24 23 24 25 25 24 23 22 23 22 20 19 20 21 21 21 20 26 23 23 20 19 20 22 25 27 25 32 34 34 35 37 38 40 41 45 45 44 49 55 59 61 63 62 70 69 68 67 67 68 67 65 63 64 64 64 64 65 63 63 65 65 66 65 65 65 65 66 65 66 66
30 29 30 31 30 28 29 30 30 30 28 26 27 27 27 26 25 25 24 24 24 23 23 23 24 22 21 22 22 21 20 22 24 26 21 19 20 21 23 21 23 24 28 32 31 35 36 38 39 40 43 45 46 49 54 56 59 62 63 68 69 68 67 68 68 66 65 65 64 63 64 64 65 64 64 65 65 65 66 66 66 65 65 66 66 66
30 32 33 33 30 28 29 30 32 32 29 29 29 29 28 27 27 26 25 25 25 25 23 23 23 20 18 21 20 27 21 20 20 17 17 17 18 22 22 23 23 24 27 28 31 33 36 38 40 42 42 46 48 51 54 56 59 61 63 62 69 68 68 68 68 66 65 65 64 64 64 64 64 64 65 66 65 65 66 66 65 65 65 66 66 66
31 36 34 32 30 30 32 32 32 32 30 31 30 28 28 28 28 26 27 24 24 22 22 22 22 27 22 22 26 20 20 22 20 19 17 19 21 27 27 24 24 22 23 28 32 33 35 38 41 44 42 43 47 51 53 56 57 61 63 62 65 69 68 68 68 67 66 65 65 64 65 64 63 63 63 63 63 65 66 65 65 65 65 66 66 66
33 34 33 32 34 33 34 32 31 28 30 29 30 29 28 28 27 24 24 26 24 22 22 25 24 23 21 22 22 23 22 19 20 21 22 20 16 20 24 21 21 20 21 27 28 24 33 36 40 42 43 44 45 49 51 54 55 59 61 62 61 67 68 68 68 67 66 65 65 65 65 64 63 63 63 63 63 64 65 65 65 66 66 66 67 67
28 28 30 34 38 35 33 31 29 29 28 31 31 31 27 25 23 20 21 21 22 22 24 22 23 22 22 25 23 24 25 27 28 22 21 22 20 21 17 20 28 21 21 25 26 29 36 37 39 40 41 44 46 49 53 53 55 57 60 61 61 64 68 68 67 67 66 66 65 65 65 65 65 64 64 64 64 65 64 65 65 66 65 66 66 66
26 29 30 31 36 36 34 29 28 28 30 31 31 31 27 24 22 19 20 21 20 22 21 21 22 19 20 22 28 25 29 29 30 27 26 24 24 23 21 24 23 29 30 31 28 28 35 39 38 40 41 42 46 46 52 55 55 57 58 61 60 60 68 68 67 67 66 66 65 65 64 67 65 65 66 65 65 65 65 65 65 66 66 66 66 66
25 25 31 31 31 34 34 32 32 32 32 32 30 32 30 29 26 21 21 19 21 22 23 25 22 23 22 26 25 30 32 32 31 33 31 33 32 35 36 24 21 22 22 18 27 29 35 40 42 42 43 43 45 47 47 53 55 56 57 59 60 59 67 68 67 67 66 65 65 63 64 65 66 67 66 66 66 66 66 66 66 66 67 67 67 67
26 27 29 33 33 33 34 34 36 35 30 31 31 29 30 28 31 26 26 27 26 25 25 24 23 23 24 27 32 33 33 34 34 34 36 35 35 36 34 35 27 22 21 20 24 33 36 38 42 44 44 45 44 46 48 48 54 56 57 58 59 59 67 67 66 66 65 64 64 64 64 66 67 67 67 67 66 66 66 66 66 66 67 67 67 67
28 27 28 32 35 33 36 34 36 34 29 33 29 28 29 31 31 30 30 31 31 28 24 26 24 21 24 30 30 33 33 34 34 33 33 35 35 36 35 35 34 37 25 22 21 25 37 38 40 42 43 46 47 49 50 49 50 54 57 57 58 60 67 66 65 65 65 64 64 64 64 65 66 67 67 67 67 66 67 67 67 67 67 68 68 68
30 29 32 33 33 35 37 38 38 38 36 33 29 31 32 29 32 31 24 25 25 21 21 21 19 18 24 24 32 31 29 29 30 31 32 34 34 35 36 37 37 37 37 38 28 29 33 40 40 43 45 45 48 49 51 53 53 54 57 58 58 59 65 66 65 65 65 64 64 64 65 65 65 66 67 67 67 67 67 67 67 67 67 68 68 68
34 28 30 30 32 36 38 38 38 38 35 32 32 38 28 25 24 29 27 22 21 20 20 20 19 20 29 29 32 29 28 30 31 32 32 33 34 35 35 36 38 39 40 39 39 31 36 42 39 42 45 44 48 50 51 50 54 56 57 58 58 59 66 66 65 65 65 64 64 64 64 65 65 65 66 68 68 69 68 67 67 67 67 68 68 68
31 28 27 29 34 38 40 37 30 32 32 33 32 30 32 30 28 25 26 27 27 23 21 19 20 21 32 32 32 28 30 32 32 33 33 33 34 35 36 37 37 38 40 40 39 40 32 39 38 37 45 44 46 48 49 49 50 53 57 58 58 60 66 66 66 65 64 64 64 64 64 64 64 64 65 67 68 69 68 66 66 66 68 68 68 69
29 35 27 29 34 38 34 33 33 32 30 30 30 29 30 30 31 29 30 29 26 23 21 21 20 23 33 36 30 30 32 33 34 34 35 35 35 36 37 38 38 38 39 40 41 40 40 40 41 41 46 44 45 45 49 50 51 52 55 57 58 57 65 66 66 65 65 65 65 64 64 65 64 64 65 66 68 68 66 65 63 64 65 68 68 68
29 29 28 29 31 34 37 37 35 35 33 31 30 29 30 28 26 23 21 26 29 25 23 22 22 27 38 33 32 33 33 34 35 35 35 36 36 37 38 39 38 39 39 40 41 42 42 39 41 43 44 44 43 44 46 48 51 52 53 54 57 59 65 65 66 66 66 66 65 65 65 64 64 64 65 66 67 66 66 65 65 65 65 66 67 67
35 33 30 29 31 32 37 37 38 36 35 34 32 31 31 31 30 26 21 23 28 28 27 28 24 24 37 36 33 36 36 38 39 37 36 36 36 37 38 40 39 39 39 40 40 42 43 43 42 44 42 43 42 43 47 52 52 54 60 59 57 58 63 66 66 66 66 66 66 66 66 65 65 65 66 65 66 65 65 65 65 65 66 66 65 67
37 32 29 29 31 36 37 38 40 38 36 33 34 34 32 30 31 29 28 29 27 27 26 24 21 22 30 31 33 37 40 40 38 36 36 36 37 38 39 38 38 39 40 40 41 43 43 44 44 45 44 41 42 46 46 47 49 59 60 62 61 59 61 63 65 66 66 65 66 66 66 65 65 66 65 65 65 65 65 66 66 66 66 66 66 66
29 31 30 29 27 34 37 37 39 38 36 33 32 33 33 32 32 32 32 33 28 28 27 24 19 22 30 32 32 37 40 38 37 37 38 38 40 40 41 41 40 40 41 40 41 42 43 43 42 42 41 40 37 38 44 45 47 51 58 58 59 61 62 63 65 66 66 65 65 65 65 65 65 65 65 65 65 66 66 66 65 66 66 66 66 66
31 31 30 28 26 24 23 23 26 29 32 34 33 33 33 31 31 30 26 27 24 26 27 25 23 28 32 32 32 35 37 37 36 38 38 38 41 43 44 43 42 41 41 41 41 42 44 42 41 43 48 43 36 34 37 43 47 50 55 55 57 57 60 62 62 65 65 65 64 65 65 64 64 64 65 65 66 65 66 66 66 65 66 66 66 65
31 33 33 32 31 28 29 33 38 36 35 32 33 32 32 31 32 31 30 26 24 27 26 27 29 29 30 32 33 37 36 35 36 36 36 38 40 43 45 44 44 45 43 42 42 43 43 44 44 41 43 43 40 35 34 40 48 48 51 59 59 60 60 60 60 61 65 65 65 64 64 64 64 64 65 65 66 66 66 66 66 66 67 67 66 65
32 29 32 33 33 33 33 36 37 37 34 33 31 31 31 31 31 30 28 26 30 28 22 27 29 29 30 34 36 36 36 35 36 36 36 38 42 43 45 45 47 48 46 44 43 43 43 43 44 44 41 44 41 36 35 36 45 47 46 56 56 57 58 60 59 59 61 64 64 64 63 64 65 64 65 65 65 66 66 66 66 66 67 68 67 67
32 28 30 32 30 32 32 34 37 35 36 33 32 31 30 31 31 30 30 31 31 28 25 29 31 30 31 34 36 36 36 36 36 36 37 39 40 44 46 45 45 47 47 44 43 43 44 44 45 46 42 40 42 41 44 40 38 43 49 56 56 56 55 59 59 59 59 61 63 63 63 63 64 64 65 65 66 66 66 66 66 67 67 67 67 67
31 29 30 30 30 31 32 34 34 35 36 33 32 31 30 31 30 31 31 31 31 30 31 31 32 31 33 35 36 37 38 37 37 37 37 36 38 43 44 41 41 42 45 47 45 44 44 45 45 46 47 42 42 40 41 41 37 41 45 51 58 59 57 59 59 60 61 62 63 64 64 64 64 63 64 65 65 65 65 65 66 66 66 66 66 66
31 28 31 31 28 27 33 34 33 34 36 32 33 31 30 31 31 31 31 31 32 31 31 31 32 30 35 37 37 38 37 37 37 36 36 37 38 40 40 40 41 41 42 43 48 45 45 45 45 45 46 42 40 40 39 40 40 44 44 49 59 58 56 57 59 60 61 62 63 64 64 65 64 64 64 64 65 65 65 65 66 66 66 66 65 65
32 28 30 30 25 26 30 31 31 36 36 31 29 29 30 30 29 30 30 31 31 30 31 31 29 29 35 38 39 38 37 37 36 36 36 38 41 41 40 41 41 42 43 43 44 46 45 44 45 45 45 46 41 42 40 41 43 43 44 52 57 58 59 58 60 60 61 61 63 64 64 65 64 64 64 64 64 64 64 65 66 66 65 65 63 63
28 27 27 26 24 25 27 28 35 35 32 27 26 27 29 30 31 31 32 32 32 32 31 28 29 34 36 38 37 37 37 37 36 36 36 42 44 40 41 41 42 42 43 44 45 47 48 44 43 46 47 48 41 40 40 42 41 41 41 48 57 59 59 60 61 61 62 63 63 61 61 62 64 63 63 64 64 64 64 64 65 65 65 65 65 65
27 28 26 27 24 24 26 27 33 31 20 22 29 29 28 29 30 30 29 31 33 37 34 35 35 36 36 37 37 37 38 37 37 37 38 40 38 40 42 44 44 44 44 46 46 46 47 46 45 46 48 49 45 41 43 41 42 45 44 45 47 55 56 56 59 60 61 61 61 60 61 59 60 62 64 64 64 65 64 64 65 66 66 66 66 66
26 26 24 24 23 23 23 26 24 24 24 30 29 29 30 30 31 29 30 33 34 37 35 35 36 36 37 38 39 40 39 38 37 37 35 36 39 41 44 44 46 47 47 47 47 47 47 47 47 47 48 49 47 43 45 43 42 46 43 43 45 48 58 59 57 57 58 59 59 61 61 61 62 63 64 64 64 65 64 64 64 65 66 66 66 66
26 25 25 22 23 22 20 20 21 26 29 29 29 30 31 30 30 30 30 33 35 37 35 36 36 36 37 39 40 40 39 38 39 36 34 37 40 42 44 44 47 48 49 49 48 48 48 47 48 48 48 50 50 44 42 42 44 43 41 43 43 47 54 56 54 54 57 57 58 59 61 61 62 64 63 63 64 64 64 64 64 64 65 65 65 65
27 24 24 20 23 19 19 20 29 31 28 28 28 29 27 26 27 29 27 30 34 34 34 38 36 37 39 39 40 40 39 38 35 32 35 38 41 44 44 45 47 48 51 51 51 50 49 48 49 49 50 51 51 47 44 44 44 44 43 45 44 42 44 47 50 52 54 55 56 59 60 62 62 63 64 63 64 63 63 64 64 64 64 65 65 65
24 24 22 21 22 22 18 19 27 28 22 26 29 29 30 32 32 33 30 29 33 32 36 39 37 38 39 39 40 40 39 36 31 33 36 40 43 45 45 47 48 49 51 52 50 49 48 49 49 50 51 51 51 50 46 46 45 42 42 44 43 39 43 45 45 47 50 51 51 57 59 62 62 63 63 63 63 62 63 63 64 64 64 64 64 64
24 26 22 20 21 21 19 18 21 22 25 28 28 30 31 32 32 33 28 24 28 31 38 39 38 39 40 40 39 40 36 31 31 35 38 42 44 45 45 46 48 49 53 52 52 50 49 49 49 49 51 51 50 49 48 48 49 45 43 43 42 39 42 47 47 48 46 48 51 53 58 61 62 63 63 63 62 62 62 62 63 63 64 64 64 64
24 24 22 20 22 22 20 17 20 26 26 29 30 30 31 32 35 29 22 22 31 32 38 40 39 41 41 41 40 38 34 30 32 36 41 43 45 45 44 46 48 50 50 51 51 51 51 51 51 49 50 51 52 52 48 48 47 46 45 43 46 43 45 48 49 47 48 49 50 53 61 61 62 63 63 63 63 62 61 62 63 63 63 63 64 64
22 23 21 21 19 22 23 18 19 25 30 31 30 32 32 35 32 26 23 28 32 35 39 40 41 43 42 42 40 36 38 39 40 41 42 42 43 43 44 46 47 50 51 49 48 48 50 50 51 52 52 52 52 48 47 46 47 47 46 48 46 47 48 51 50 48 47 49 53 53 58 59 61 63 64 63 63 62 62 63 63 63 63 63 63 63
25 26 21 25 21 21 21 20 19 21 29 30 31 33 33 32 26 24 32 34 33 39 40 42 42 43 43 42 41 40 41 42 42 42 42 42 43 44 43 45 46 48 48 49 49 50 50 51 51 50 51 56 52 50 51 49 49 48 48 47 48 51 51 50 47 48 54 51 49 51 54 60 64 65 65 64 63 62 63 63 63 63 64 64 64 63
26 25 21 22 24 23 23 21 21 20 28 32 32 32 33 30 30 33 33 33 33 41 42 41 43 44 45 43 43 42 41 41 41 41 42 42 42 43 43 44 45 46 48 49 50 49 50 52 52 50 51 55 53 53 55 55 51 50 50 50 51 51 50 49 50 45 48 53 53 54 57 61 63 63 64 64 64 63 63 63 63 63 63 63 63 63
29 26 23 23 28 23 22 23 22 26 29 34 32 30 31 36 34 34 33 31 32 39 41 41 41 44 46 45 44 42 41 40 40 41 41 42 42 42 43 44 46 46 48 49 50 49 49 53 51 46 48 49 51 53 54 54 51 53 54 55 55 60 55 50 51 54 59 54 52 57 60 59 62 62 62 62 62 62 62 62 62 62 61 62 62 63
31 29 29 25 31 26 24 26 28 29 30 31 33 33 33 34 35 34 34 33 32 31 39 41 43 45 46 44 45 43 41 41 41 41 41 42 42 42 42 43 44 46 47 48 48 48 50 50 50 49 46 45 51 50 45 54 52 52 55 57 56 51 52 57 59 57 57 58 56 55 59 60 62 63 62 62 61 60 61 61 61 60 60 60 61 62
33 32 32 31 24 29 31 30 31 29 31 31 31 33 33 34 34 34 34 33 32 32 40 42 43 44 44 45 44 44 43 42 41 41 41 42 41 42 42 42 43 43 45 47 47 47 49 50 50 52 49 43 51 50 51 49 52 53 56 54 54 53 56 51 58 59 58 57 58 59 58 59 61 62 62 63 61 60 60 61 61 61 61 62 62 62
32 31 32 28 26 26 24 27 28 30 32 31 31 32 34 34 34 34 34 33 32 32 34 40 42 42 43 45 44 44 43 42 42 41 41 42 42 41 42 43 43 43 43 44 45 46 46 47 48 48 50 51 52 48 49 56 51 53 53 54 52 50 54 53 54 57 59 59 56 59 59 57 59 61 61 62 62 61 61 60 61 61 61 61 62 61
28 33 30 28 27 26 25 28 32 33 32 33 32 32 33 34 34 34 34 34 34 34 33 34 39 40 42 44 45 45 44 43 42 41 41 41 41 41 42 43 43 43 43 44 44 45 45 46 46 47 48 49 50 52 55 51 50 52 53 52 52 55 55 56 58 56 57 58 56 56 60 59 52 58 61 61 61 60 60 61 61 63 62 61 61 60
29 32 27 27 26 25 28 32 33 33 33 33 33 32 34 34 33 33 33 33 33 33 33 33 37 38 41 43 42 45 44 44 42 42 41 41 40 41 42 42 43 43 43 43 44 44 44 45 45 46 47 48 49 50 51 54 55 53 53 53 52 57 56 57 55 59 58 56 55 55 59 58 58 59 60 60 61 63 61 64 60 62 62 62 61 60
31 30 30 28 27 26 28 32 35 31 31 32 32 32 34 35 34 34 34 33 33 32 32 32 32 36 39 42 42 42 45 44 44 43 41 42 41 41 42 42 42 42 43 43 44 44 44 45 45 45 45 46 47 48 50 51 52 53 54 56 57 58 57 55 57 60 58 57 56 54 57 58 57 58 57 58 58 59 53 38 37 40 60 62 47 45
31 33 31 29 28 28 32 33 34 34 33 34 32 33 35 35 34 34 33 34 33 33 32 33 32 33 34 36 40 42 42 45 45 44 42 42 42 41 41 42 42 42 43 43 43 43 44 44 45 45 45 45 46 47 48 49 50 51 52 53 55 59 59 59 58 56 55 54 54 50 54 56 56 57 57 56 59 61 58 57 53 39 37 38 39 38